Satellite: GO-32
Catalog number: 25397
Epoch time:      09021.83512478
Element set:    0804
Inclination:      098.3426 deg
RA of node:       051.9162 deg
Eccentricity:    0.0000990
Arg of perigee:   010.5083 deg
Mean anomaly:     349.6112 deg
Mean motion:   14.23153971 rev/day
Decay rate:        3.8e-07 rev/day^2
Epoch rev:           54731
Checksum:              288

Satellite: NO-44
Catalog number: 26931
Epoch time:      09021.64230249
Element set:    0081
Inclination:      067.0516 deg
RA of node:       081.8808 deg
Eccentricity:    0.0005727
Arg of perigee:   260.8232 deg
Mean anomaly:     099.2209 deg
Mean motion:   14.29544892 rev/day
Decay rate:      -1.79e-06 rev/day^2
Epoch rev:           38163
Checksum:              310

Satellite: SO-50
Catalog number: 27607
Epoch time:      09021.79148121
Element set:    0796
Inclination:      064.5581 deg
RA of node:       109.7168 deg
Eccentricity:    0.0080878
Arg of perigee:   236.9116 deg
Mean anomaly:     122.4231 deg
Mean motion:   14.71410185 rev/day
Decay rate:       -1.6e-07 rev/day^2
Epoch rev:           32713
Checksum:              296

Satellite: CO-55
Catalog number: 27844
Epoch time:      09021.49568545
Element set:    0494
Inclination:      098.7155 deg
RA of node:       032.7205 deg
Eccentricity:    0.0009415
Arg of perigee:   203.3621 deg
Mean anomaly:     156.7134 deg
Mean motion:   14.20618200 rev/day
Decay rate:        1.0e-07 rev/day^2
Epoch rev:           28843
Checksum:              288

Satellite: CO-57
Catalog number: 27848
Epoch time:      09021.52335094
Element set:    0441
Inclination:      098.7168 deg
RA of node:       031.8141 deg
Eccentricity:    0.0009175
Arg of perigee:   209.0030 deg
Mean anomaly:     151.0635 deg
Mean motion:   14.20423380 rev/day
Decay rate:        1.3e-07 rev/day^2
Epoch rev:           28840
Checksum:              271

Satellite: AO-51
Catalog number: 28375
Epoch time:      09021.55457078
Element set:     297
Inclination:      098.0568 deg
RA of node:       039.6726 deg
Eccentricity:    0.0082932
Arg of perigee:   210.1396 deg
Mean anomaly:     149.5009 deg
Mean motion:   14.40630894 rev/day
Decay rate:        1.0e-08 rev/day^2
Epoch rev:           23984
Checksum:              323

Satellite: CO-56
Catalog number: 28941
Epoch time:      09022.70205890
Element set:     748
Inclination:      098.1243 deg
RA of node:       171.8222 deg
Eccentricity:    0.0124173
Arg of perigee:   316.7343 deg
Mean anomaly:     042.4246 deg
Mean motion:   15.69841894 rev/day
Decay rate:     2.3493e-04 rev/day^2
Epoch rev:           16432
Checksum:              315

Satellite: CP3
Catalog number: 31128
Epoch time:      09022.68266937
Element set:     537
Inclination:      098.0130 deg
RA of node:       082.5035 deg
Eccentricity:    0.0103364
Arg of perigee:   016.6316 deg
Mean anomaly:     343.8233 deg
Mean motion:   14.52011654 rev/day
Decay rate:       -4.7e-07 rev/day^2
Epoch rev:            9378
Checksum:              281

Satellite: CP4
Catalog number: 31132
Epoch time:      09022.71858593
Element set:     516
Inclination:      098.0168 deg
RA of node:       085.8022 deg
Eccentricity:    0.0086103
Arg of perigee:   007.0357 deg
Mean anomaly:     353.2024 deg
Mean motion:   14.55177024 rev/day
Decay rate:       -5.7e-07 rev/day^2
Epoch rev:            9387
Checksum:              287

Satellite: CO-65
Catalog number: 32785
Epoch time:      09021.89691699
Element set:     270
Inclination:      097.9665 deg
RA of node:       086.9371 deg
Eccentricity:    0.0015627
Arg of perigee:   143.2182 deg
Mean anomaly:     217.0092 deg
Mean motion:   14.81441298 rev/day
Decay rate:       1.63e-06 rev/day^2
Epoch rev:            3978
Checksum:              342

/EX
SB KEPS @ AMSAT  $ORB09022.W
Orbital Elements  09022.WEATHER

HR AMSAT ORBITAL ELEMENTS FOR WEATHER SATELLITES
FROM WA5QGD FORT WORTH,TX January 22, 2009
Send Subscribe/unsubscribe to KEPS at 
http://www.amsat.org/mailman/listinfo/keps
BID: ORB09022.W
TO ALL RADIO AMATEURS BT

Satellite: NOAA-10
Catalog number: 16969
Epoch time:      09021.79240997
Element set:    0469
Inclination:      098.7074 deg
RA of node:       049.1348 deg
Eccentricity:    0.0011509
Arg of perigee:   263.2466 deg
Mean anomaly:     096.7382 deg
Mean motion:   14.27378442 rev/day
Decay rate:        5.2e-07 rev/day^2
Epoch rev:           16262
Checksum:              331

Satellite: NOAA-11
Catalog number: 19531
Epoch time:      09021.82456240
Element set:    0485
Inclination:      098.7886 deg
RA of node:       114.0308 deg
Eccentricity:    0.0011577
Arg of perigee:   162.0609 deg
Mean anomaly:     198.0972 deg
Mean motion:   14.14885614 rev/day
Decay rate:      -2.02e-06 rev/day^2
Epoch rev:           04882
Checksum:              304

Satellite: NOAA-12
Catalog number: 21263
Epoch time:      09021.97817405
Element set:    0998
Inclination:      098.7724 deg
RA of node:       029.9687 deg
Eccentricity:    0.0011831
Arg of perigee:   207.7142 deg
Mean anomaly:     152.3415 deg
Mean motion:   14.25563640 rev/day
Decay rate:        2.0e-07 rev/day^2
Epoch rev:           91956
Checksum:              311

